Weather History for KIND - November, 2013

Change the Weather History Date:

Sunday, November 3, 2013

  Actual Average Record
Temperature  
Mean Temperature 42 °F 49 °F  
Max Temperature 52 °F 59 °F 77 °F (2003)
Min Temperature 32 °F 40 °F 11 °F (1951)
Degree Days  
Heating Degree Days 23 16  
Month to date heating degree days 54 47  
Since 1 July heating degree days 434 448  
Cooling Degree Days 0 0  
Month to date cooling degree days 0 0  
Year to date cooling degree days 1160 1065  
Moisture  
Dew Point 34 °F    
Average Humidity 74    
Maximum Humidity 100    
Minimum Humidity 48    
Precipitation  
Precipitation 0.00 in 0.12 in 0.65 in (2011)
Month to date precipitation T 0.35  
Year to date precipitation 38.25 35.92  
Snow  
Snow 0.00 in 0.00 in 4.50 in (1899)
Month to date snowfall 0.0 0.0  
Since 1 July snowfall T 0.4  
Since 1 September snowfall T 0.4  
Snow Depth 0.00 in    
Sea Level Pressure  
Sea Level Pressure 30.26 in    
Wind  
Wind Speed 5 mph (SSE)    
Max Wind Speed 13 mph    
Max Gust Speed 15 mph    
Visibility 9 miles    
Events Fog    
T = Trace of Precipitation, MM = Missing Value Source: NWS Daily Summary

Daily Weather History Graph

Daily Weather History Graph

Search for Another Location

Airport or City:

Trip Planner

Search our weather history database for the weather conditions in past years. The results will help you decide how hot, cold, wet, or windy it might be!

Date:

Astronomy

Nov. 03, 2013 Rise Set
Actual Time 7:16 AM EST 5:40 PM EST
Civil Twilight 6:48 AM EST 6:08 PM EST
Nautical Twilight 6:16 AM EST 6:40 PM EST
Astronomical Twilight 5:44 AM EST 7:12 PM EST
Moon 7:19 AM EST (11/3) 5:55 PM EST (11/3)
Length of Visible Light 11h 20m
Length of Day
10h 24m
New Moon, 0% of the Moon is Illuminated
Nov 3
New Moon
Nov 10
First Quarter
Nov 17
Full
Nov 25
Last Quarter
Dec 2
New

Hourly Weather History & Observations

Time (EST) Temp. Windchill Dew Point Humidity Pressure Visibility Wind Dir Wind Speed Gust Speed Precip Events Conditions
12:54 AM 43.0 °F 38.2 °F 37.9 °F 82% 30.14 in 10.0 mi WNW 8.1 mph - N/A   Overcast
1:54 AM 39.0 °F 35.7 °F 36.0 °F 89% 30.13 in 10.0 mi WNW 4.6 mph - N/A   Partly Cloudy
1:54 AM 37.9 °F 33.5 °F 35.1 °F 89% 30.14 in 10.0 mi West 5.8 mph - N/A   Clear
2:54 AM 36.0 °F 32.1 °F 34.0 °F 93% 30.17 in 9.0 mi West 4.6 mph - N/A   Clear
3:54 AM 36.0 °F 33.3 °F 34.0 °F 93% 30.19 in 9.0 mi WNW 3.5 mph - N/A   Clear
4:54 AM 34.0 °F 29.8 °F 33.1 °F 96% 30.22 in 9.0 mi West 4.6 mph - N/A   Clear
5:54 AM 33.1 °F 28.7 °F 32.0 °F 96% 30.24 in 9.0 mi West 4.6 mph - N/A   Clear
6:11 AM 33.8 °F 30.8 °F 32.0 °F 93% 30.23 in 7.0 mi WNW 3.5 mph - N/A Fog Patches of Fog
6:54 AM 33.1 °F 28.7 °F 32.0 °F 96% 30.26 in 7.0 mi West 4.6 mph - N/A Fog Patches of Fog
7:54 AM 34.0 °F 28.8 °F 32.0 °F 92% 30.28 in 8.0 mi WSW 5.8 mph - N/A Fog Patches of Fog
8:54 AM 39.0 °F - 36.0 °F 89% 30.30 in 7.0 mi Calm Calm - N/A   Clear
9:54 AM 43.0 °F - 37.0 °F 80% 30.32 in 10.0 mi Calm Calm - N/A   Clear
10:54 AM 46.0 °F - 36.0 °F 68% 30.34 in 10.0 mi Calm Calm - N/A   Partly Cloudy
11:54 AM 48.9 °F - 35.1 °F 59% 30.32 in 10.0 mi East 4.6 mph - N/A   Scattered Clouds
12:54 PM 50.0 °F - 33.1 °F 52% 30.30 in 10.0 mi ESE 5.8 mph - N/A   Scattered Clouds
1:54 PM 51.1 °F - 33.1 °F 50% 30.28 in 10.0 mi ESE 8.1 mph - N/A   Scattered Clouds
2:54 PM 50.0 °F - 32.0 °F 50% 30.29 in 10.0 mi ESE 6.9 mph - N/A   Scattered Clouds
3:54 PM 51.1 °F - 32.0 °F 48% 30.28 in 10.0 mi SSE 10.4 mph - N/A   Scattered Clouds
4:54 PM 48.9 °F - 32.0 °F 52% 30.28 in 10.0 mi ESE 8.1 mph - N/A   Partly Cloudy
5:54 PM 46.9 °F - 32.0 °F 56% 30.28 in 10.0 mi ESE 5.8 mph - N/A   Partly Cloudy
6:54 PM 45.0 °F 41.8 °F 32.0 °F 60% 30.29 in 10.0 mi East 5.8 mph - N/A   Partly Cloudy
7:54 PM 43.0 °F 38.8 °F 32.0 °F 65% 30.30 in 10.0 mi ESE 6.9 mph - N/A   Partly Cloudy
8:54 PM 42.1 °F 38.4 °F 32.0 °F 67% 30.31 in 10.0 mi ESE 5.8 mph - N/A   Partly Cloudy
9:54 PM 41.0 °F 35.8 °F 33.1 °F 73% 30.30 in 10.0 mi ESE 8.1 mph - N/A   Mostly Cloudy
10:54 PM 41.0 °F 37.1 °F 34.0 °F 76% 30.32 in 10.0 mi ESE 5.8 mph - N/A   Mostly Cloudy